Location: ?????
(55.8833°N, 37.6500°E)
Time: 20:44:14
(UTC+00:00)

USA 229 - Pass Details

Date: 27 February 2020
Orbit: 986 x 1226 km, 63.4° (Epoch: 26 March)

Event Time Altitude Azimuth Distance (km) Brightness Sun altitude
Rises 15:30:41 0° 220° (SW) 3,726 7.4 -5.3°
Reaches altitude 10° 15:33:13 10° 219° (SW) 2,800 6.6 -5.7°
Maximum altitude 15:39:47 75° 136° (SE) 1,095 3.7 -6.6°
Drops below altitude 10° 15:46:47 10° 53° (NE) 2,970 5.5 -7.6°
Enters shadow 15:48:53 - 52° (NE) 3,734 6.0 -7.9°
